www.pogodaiklimat.ru

Погода и климат >> Архив погоды >> Индия >> Jharsuguda


ПОГОДА в Jharsuguda

  • Прогноз погоды в Jharsuguda
  • Монитор погоды в Jharsuguda
  • Климат города

АРХИВ ПОГОДЫ в Jharsuguda

Время (UTC), дата Ветер
(напр.,м/с)
 
Видим.   Явления Облачность Т
(С)
Тd
(С)
f
(%)
Тe
(С)
Тes
(С)
Комфортность P
(гПа)
Po
(гПа)
Тmin
(С)
Tmax
(С)
R
(мм)
R24
(мм)
S
(см)
06 14.05 ЮЗ 3 2000 м в посл. час гроза {дождь} 10/8 540 м
[Sc As op]
+24.6 +19.0 71 +30 +30 очень
душно
1009.2 1009.0 3
09 14.05 ЮЗ 2 4000 м 9/0
[Ac trans]
+31.0 +20.5 54 +38 +45 очень
душно
1006.2 1006.0 3
12 14.05 штиль 0 4000 м ясно +31.8 +18.2 44 +36 +38 очень
душно
1004.5 1005.0 +32.6 3
15 14.05 штиль 0 4000 м ясно +27.8 +21.5 69 +36 +36 очень
душно
1006.4 1006.0 3
18 14.05 СЗ 2 2000 м гроза без осадков 10/9 540 м
[Cb calv As op]
+26.2 +16.5 55 +30 +30 душно 1008.2 1008.0 3
21 14.05 СЗ 1 4000 м {гроза} 9/0
[Ac trans]
+26.0 +16.7 57 +30 +30 душно 1007.6 1008.0 3
00 15.05 штиль 0 4000 м {гроза} 9/0
[Ac trans]
+23.8 +20.7 83 +30 +30 очень
душно
1006.4 1006.0 3
03 15.05 штиль 0 4000 м ясно +28.4 +19.2 57 +34 +48 очень
душно
1007.8 1008.0 +23.2 3
06 15.05 ЮЗ 1 4000 м ясно +32.6 +18.5 43 +37 +63 опасность
солнечного
удара
1006.4 1006.0
09 15.05 ЮЗ 2 4000 м ясно +36.0 +18.3 35 +40 +55 опасность
солнечного
удара
1002.9 1003.0
12 15.05 ЮЗ 1 4000 м ясно +35.6 +17.8 35 +39 +40 очень
душно
1001.5 1002.0 +36.7
15 15.05 штиль 0 4000 м ясно +31.4 +22.0 57 +40 +40 очень
душно
1003.4 1003.0
18 15.05 штиль 0 4000 м ясно +29.6 +20.6 58 +36 +36 очень
душно
1004.1 1004.0
21 15.05 штиль 0 4000 м ясно +28.0 +20.4 63 +34 +34 очень
душно
1003.8 1004.0
00 16.05 штиль 0 4000 м ясно +27.0 +22.2 75 +35 +35 очень
душно
1003.0 1003.0
03 16.05 штиль 0 2000 м мгла 8/5 300 м
[Sc Ac trans]
+30.0 +22.4 64 +39 +44 очень
душно
1005.4 1005.0 +26.5
06 16.05 ЮЗ 3 2000 м {гроза, дождь} 9/5 540 м
[Cb calv Ac trans]
+34.4 +20.0 43 +40 +46 очень
душно
1004.1 1004.0 0.0
09 16.05 ЮЗ 3 4000 м ясно +39.2 +17.5 28 +42 +54 опасность
перегрева
1000.3 1000.0 0.0
12 16.05 Ю 4 4000 м 1/1 600 м
[Sc]
+37.0 +21.2 40 +44 +45 опасность
перегрева
998.8 999.0 +40.0 0.0
15 16.05 штиль 0 4000 м 3/3 600 м
[Sc]
+32.0 +18.5 45 +37 +37 очень
душно
1001.6 1002.0 0.0
18 16.05 СВ 5 2000 м гроза без осадков {дождь} 9/6 540 м
[Cb cap Ac trans]
+28.4 +19.2 57 +34 +34 очень
душно
1003.2 1003.0 0.1
21 16.05 штиль 0 4000 м {гроза, дождь} 4/4 600 м
[Sc]
+27.2 +19.5 63 +33 +33 очень
душно
1002.6 1003.0 0.1
00 17.05 штиль 0 4000 м 3/3 600 м
[Sc]
+25.0 +19.1 70 +30 +30 душно 1004.7 1005.0 0.1
03 17.05 В 1 4000 м ясно +30.8 +19.5 51 +37 +50 очень
душно
1005.7 1006.0 +24.6 0.1
06 17.05 СВ 1 4000 м ясно +35.6 +19.3 38 +40 +68 опасность
солнечного
удара
1004.2 1004.0
09 17.05 ЮЗ 2 4000 м 1/1 600 м
[Sc]
+40.8 +15.1 22 +42 +56 опасность
перегрева
1000.6 1001.0
12 17.05 Ю 1 4000 м 5/4 600 м
[Cb calv Ac trans]
+39.0 +17.6 29 +42 +43 опасность
перегрева
999.2 999.0 +42.1
15 17.05 штиль 0 4000 м ясно +34.6 +22.1 48 +43 +43 опасность
перегрева
1000.7 1001.0
18 17.05 штиль 0 4000 м ясно +32.2 +21.6 54 +41 +41 опасность
перегрева
1001.9 1002.0
21 17.05 штиль 0 4000 м ясно +30.8 +20.9 56 +38 +38 очень
душно
1001.3 1001.0
00 18.05 штиль 0 4000 м 4/1 600 м
[Sc Ci fib]
+28.2 +20.0 61 +34 +34 очень
душно
1003.4 1003.0
03 18.05 ЮВ 1 4000 м 3/0
[Ac trans]
+31.6 +19.1 48 +37 +47 очень
душно
1005.1 1005.0 +27.5
06 18.05 З 2 4000 м ясно +36.6 +19.1 36 +41 +63 опасность
перегрева
1003.1 1003.0
09 18.05 ЮЗ 3 4000 м 3/3 600 м
[Sc]
+40.2 +19.0 29 +44 +53 опасность
перегрева
999.3 999.0
12 18.05 Ю 2 4000 м ясно +38.4 +20.0 34 +44 +45 опасность
перегрева
998.0 998.0 +40.6
15 18.05 СВ 3 2000 м гроза, ливневой дождь 10/9 450 м
[Cb cap As op]
+25.0 +22.0 83 +32 +32 очень
душно
1004.6 1005.0 14
18 18.05 ЮЗ 3 4000 м {гроза, дождь} 9/0
[Ac trans]
+26.0 +21.8 78 +33 +33 очень
душно
1004.3 1004.0 14
21 18.05 ЮЗ 2 4000 м 9/0
[Ac trans]
+26.4 +21.9 76 +34 +34 очень
душно
1003.8 1004.0 14
00 19.05 штиль 0 4000 м 4/0
[Ac trans]
+25.0 +22.3 85 +33 +33 очень
душно
1003.5 1004.0 14
03 19.05 штиль 0 2000 м мгла 3/3 600 м
[Sc]
+29.2 +22.1 66 +38 +48 очень
душно
1005.1 1005.0 +23.5 14
06 19.05 штиль 0 2000 м мгла 6/0
[Ac trans Ci fib]
+34.0 +22.7 52 +44 +65 опасность
перегрева
1003.7 1004.0
09 19.05 штиль 0 4000 м 5/0
[Ci sp]
+36.6 +21.1 41 +44 +61 опасность
перегрева
1001.1 1001.0
12 19.05 штиль 0 4000 м 6/0
[Ci sp]
+36.6 +22.1 43 +45 +46 опасность
перегрева
1000.3 1000.0 +37.6
15 19.05 ЮВ 1 4000 м 5/0
[Ci sp]
+33.0 +23.2 56 +43 +43 опасность
перегрева
1001.0 1001.0
18 19.05 штиль 0 4000 м ясно +31.4 +23.6 63 +42 +42 опасность
перегрева
1001.7 1002.0
21 19.05 штиль 0 4000 м ясно +28.8 +24.2 76 +40 +40 очень
душно
1001.0 1001.0
00 20.05 штиль 0 4000 м 5/0
[Ci sp]
+28.6 +23.7 75 +39 +39 очень
душно
1003.5 1004.0
03 20.05 штиль 0 2000 м мгла ясно +33.0 +24.2 60 +45 +59 опасность
перегрева
1004.6 1005.0 +28.3
06 20.05 ЮЗ 1 4000 м ясно +36.8 +22.3 43 +45 +73 опасность
перегрева
1003.0 1003.0
09 20.05 ЮВ 1 4000 м 3/3 600 м
[Sc]
+39.8 +21.9 36 +47 +59 опасность
перегрева
999.9 1000.0
12 20.05 С 1 2000 м гроза, ливневой дождь 9/6 540 м
[Cb cap As op]
+29.0 +21.6 64 +37 +37 очень
душно
999.9 1000.0 +40.4 0.0
15 20.05 В 2 2000 м гроза, ливневой дождь 8/6 540 м
[Cb cap As op]
+25.2 +21.9 82 +32 +32 очень
душно
1004.8 1005.0 3
18 20.05 штиль 0 4000 м {гроза, дождь} 10/6 600 м
[Sc As op]
+25.2 +21.9 82 +32 +32 очень
душно
1005.8 1006.0 3
21 20.05 штиль 0 4000 м 9/5 600 м
[Sc As op]
+25.6 +21.4 78 +33 +33 очень
душно
1004.3 1004.0 3
00 21.05 штиль 0 2000 м мгла 4/4 600 м
[Sc]
+25.0 +23.2 90 +33 +33 очень
душно
1004.7 1005.0 3

 

Местоположение метеостанции Jharsuguda (Orissa, Индия): широта 21.92 долгота 84.08 высота над уровнем моря 230 м.

В архиве по умолчанию представлена погода в Jharsuguda за последнюю неделю. Архивные данные за месяц целиком и за предыдущие месяцы, начиная с января 2011 года, Вы можете получить, выбрав интересующий диапазон дат из раскрывающегося списка и нажав кнопку "Ввод!".


*Определитесь, кто Вы:
робот инопланетянин человек

Внимание! Время в таблицах - всемирное. Для получения местного времени необходимо прибавить поправку, которая в Jharsuguda равна 5.5 ч.

Смотрите также архив погоды в соседних городах и на ближайших метеорологических станциях:

Погода в Sundargarh (Orissa, Индия) (23 км)
Погода в Hirakud (Orissa, Индия) (50 км)
Погода в Sambalpur (Orissa, Индия) (51 км)
Погода в Keongjhargarh (Orissa, Индия) (152 км)
Погода в Angul (Orissa, Индия) (161 км)
Погода в Phulbani (Orissa, Индия) (161 км)
Погода в Ambikapur (Chhattisgarh, Индия) (163 км)
Погода в Chaibasa (Jharkhand, Индия) (192 км)
Погода в Titlagarh (Orissa, Индия) (198 км)
Погода в Bilaspur (Chhattisgarh, Индия) (198 км)

Пояснения к столбцам:

Ветер - указаны скорость ветра в м/с - средняя за 10 мин, порывы в срок и между сроками (в фигурных скобках) и направление, откуда дует ветер: С - северный, СВ - северо-восточный, В - восточный, ЮВ - юго-восточный, Ю - южный, ЮЗ - юго-западный, З - западный, СЗ - северо-западный.
Видимость - горизонтальная дальность видимости в метрах или километрах. При видимости от 1 до 10 км при отсутствии осадков обычно наблюдается дымка, при ухудшении видимости до 1 км и менее - туман. В сухую погоду видимость может ухудшаться дымом, пылью или мглою.
Явления - указаны атмосферные явления, наблюдавшиеся в срок или в последний час перед сроком; фигурными скобками обозначены явления, наблюдавшиеся между сроками (за 1-3 часа до срока); квадратными скобками обозначены град или гололедные отложения с указанием их диаметра в мм.
Облачность - указаны через наклонную черту общая и нижняя облачность в баллах и высота нижней границы облаков в метрах; квадратными скобками обозначены формы облаков: Ci - перистые, Cs - перисто-слоистые, Cc - перисто-кучевые, Ac - высококучевые, As - высокослоистые, Sc - слоисто-кучевые, Ns - слоисто-дождевые, Cu - кучевые, Cb - кучево-дождевые. Подробнее классификацию облаков см. в Атласе облаков (PDF).
T - Температура воздуха - температура, измеренная на высоте 2 м над землей.
Td - Температура точки росы - температура, при понижении до которой содержащийся в воздухе водяной пар достигнет насыщения.
f - Относительная влажность воздуха - влажноcть воздуха, измеренная на высоте 2 м над землей.
Te - Эффективная температура - температура, которую ощущает одетый по сезону человек в тени. Характеристика душности погоды. При расчете учитывается влияние влажности воздуха и скорости ветра на теплоощущения человека.
Tes - Эффективная температура на солнце - температура, которую ощущает человек, с поправкой на солнечный нагрев. Характеристика знойности погоды. Зависит от высоты солнца над горизонтом, облачности и скорости ветра. Ночью, в пасмурную погоду, а также при ветре 12 м/с и более поправка равна нулю.
P - Атмосферное давление - приведенное к уровню моря атмосферное давление.
Po - Атмосферное давление - измеренное на уровне метеостанции атмосферное давление.
Tmin - Минимальная температура - минимум температуры воздуха на высоте 2 м над землей.
Tmax - Максимальная температура - максимум температуры воздуха на высоте 2 м над землей.
R - Количество осадков - Количество выпавших осадков за период времени, мм. При наведении курсора мыши на число - период времени, за который выпало указанное количество осадков.
R24 - Количество осадков - Количество выпавших осадков за 24 часа, мм.
S - Снежный покров - Высота снежного покрова, см. При наведении курсора мыши на число - состояние снежного покрова и степень покрытия местности в баллах.